Location: Rumah Long Bangan
(2.8362°N, 113.7519°E)
Time: 05:00:29
(UTC+00:00)

Cosmos 923 Rocket - Pass Details

Date: 24 October 2021
Orbit: 758 x 785 km, 74.0° (Epoch: 28 November)

Event Time Altitude Azimuth Distance (km) Brightness Sun altitude
Rises 20:45:59 0° 204° (SSW) 3,231 7.1 -20.9°
Reaches altitude 10° 20:48:27 10° 210° (SSW) 2,299 6.3 -20.3°
Maximum altitude 20:53:25 46° 282° (WNW) 1,015 4.2 -19.1°
Drops below altitude 10° 20:58:22 10° 355° (N) 2,279 6.3 -17.9°
Sets 21:00:48 0° 1° (N) 3,200 7.1 -17.3°
